HELLAS-SAT 3

Last updated on Fri Dec 19 2025 00:02:52 GMT+0000 (Coordinated Universal Time)

1 42814U 17040A 25352.56166799 .00000177 00000+0 00000+0 0 9990 2 42814 0.0490 37.5980 0002490 277.8710 13.1389 1.00272441 30990
UTC large
Height (km)
Speed (km/s)
/
Latitude / Longitude
Inclination (degrees)
Orbital Period (minutes)
Azimuth
Elevation
Range (km)
Doppler Factor

Next 0 passes for location: London (51.5072 / 0.1276)

Sorry there are no passes over London.